GFSSGP_850_thetae_159.txt.gz
Theta_e
317 313 313 313 318 321 326 328 325 327 328 329 338 346 347 345 347 351 345 343 345 349 348 348 345 345 337 334 330 330 335 337 337 336 332 327 323 322 323 324 329 338 336 335 334 333 329 324 322
316 314 313 314 316 320 323 325 327 328 326 325 326 329 336 342 344 343 343 344 345 348 345 345 345 342 337 332 328 326 330 331 330 328 326 326 321 323 325 325 325 333 337 336 330 323 322 322 322
317 313 313 315 315 316 319 323 326 327 325 325 327 334 342 344 342 344 343 340 345 347 344 344 344 340 337 333 329 323 324 324 324 324 323 323 320 324 325 324 325 325 326 325 324 325 324 322 322
311 312 313 315 315 315 317 322 323 325 325 323 323 324 342 352 349 346 344 344 345 346 345 344 343 340 337 334 331 325 323 323 323 322 321 320 321 324 325 326 326 325 325 326 328 328 325 322 322
310 312 315 316 315 315 316 319 319 322 321 321 318 325 327 331 340 349 346 346 345 345 345 344 343 340 337 335 333 328 322 321 321 319 319 320 323 324 324 324 324 324 324 325 324 325 323 322 322
315 311 314 316 317 315 315 315 317 318 318 318 318 319 327 339 353 348 348 347 346 344 345 344 343 340 338 336 335 330 323 320 319 319 320 321 323 323 323 323 324 324 323 322 321 321 322 323 324
320 315 315 315 315 315 315 314 316 317 317 318 317 319 327 342 354 352 349 347 346 344 343 344 344 341 339 337 336 332 327 319 319 320 321 322 323 323 324 324 324 323 323 322 321 321 322 328 329
317 316 316 315 315 315 315 314 314 315 316 316 315 317 320 335 349 353 349 347 347 345 343 344 344 342 338 336 336 334 331 323 319 320 321 322 324 324 325 323 324 324 323 322 322 323 325 328 331
315 320 318 317 315 315 313 314 313 314 315 315 316 317 330 325 338 353 349 348 349 347 345 345 345 344 340 337 335 335 333 330 321 320 322 324 325 325 323 323 325 326 328 328 328 328 328 325 323
316 318 319 318 317 315 315 315 315 316 316 316 318 318 326 333 334 346 350 349 350 347 346 346 346 345 341 338 337 336 335 334 328 322 321 323 324 324 324 324 324 324 324 323 322 323 323 323 323
312 316 317 316 317 315 316 315 315 316 317 317 318 318 328 348 348 344 351 351 348 347 345 345 346 345 343 340 339 337 336 336 334 328 323 321 322 324 324 324 324 323 323 323 324 330 330 326 333
313 312 312 314 314 313 315 316 319 318 317 318 317 317 320 347 351 353 354 353 350 346 344 344 346 346 344 342 341 340 337 337 337 335 329 324 322 321 324 324 323 324 325 325 326 336 336 337 338
311 310 312 313 313 314 314 315 315 316 318 319 319 320 320 326 346 352 354 353 351 347 344 344 344 346 345 344 342 341 339 338 338 337 335 329 325 323 321 324 325 325 334 332 331 338 340 340 340
309 310 311 311 311 313 314 314 315 315 316 317 318 319 320 320 337 350 353 352 350 347 343 343 343 344 345 344 342 341 340 339 338 338 337 332 326 324 324 322 324 335 340 341 341 341 341 341 341
311 312 312 312 312 312 312 314 315 314 315 316 318 319 319 319 322 343 350 352 349 347 343 342 342 342 344 343 341 341 340 340 339 338 337 333 326 324 324 322 325 339 341 341 342 343 342 342 341
310 309 311 313 313 311 313 312 315 314 314 315 315 315 316 318 324 344 350 350 348 347 344 341 339 339 340 338 336 337 338 340 340 339 336 328 324 324 323 322 333 341 341 341 343 340 342 338 340
309 309 310 312 314 312 313 312 313 314 315 315 315 315 315 317 330 349 352 351 350 348 345 341 337 335 335 335 333 332 334 338 339 337 330 324 324 323 332 334 337 339 341 343 342 338 334 332 328
310 309 309 310 312 313 314 313 314 314 316 316 316 316 317 317 329 351 352 351 351 349 346 341 337 335 335 334 330 331 334 337 336 331 327 325 324 323 331 339 342 343 342 340 338 335 334 330 334
311 311 311 310 310 313 313 315 315 315 315 316 316 317 317 318 328 350 352 352 351 349 342 338 336 335 335 333 329 331 335 333 331 330 330 329 330 325 334 341 344 345 341 337 334 332 332 330 335
311 312 312 311 310 310 311 312 314 315 316 316 317 317 318 318 335 348 350 351 351 347 342 339 339 338 336 331 331 333 333 330 331 332 334 337 339 334 331 335 340 341 335 335 333 330 332 336 336
312 312 312 311 311 310 310 310 311 313 314 315 317 317 318 318 333 347 349 350 351 349 347 346 345 342 336 332 332 332 331 332 333 336 338 342 342 342 341 339 340 336 333 332 332 330 334 335 328
314 312 311 311 311 312 311 310 310 312 313 316 317 318 317 318 329 344 347 348 350 350 349 348 347 344 337 333 332 332 335 337 336 341 343 343 343 342 340 333 334 333 334 331 330 336 334 325 323
315 312 312 312 312 311 310 312 312 313 316 316 318 318 318 318 325 341 346 348 349 350 349 348 348 345 337 334 333 338 341 341 341 343 343 343 339 335 331 330 330 330 330 331 335 335 324 319 316
313 313 312 311 311 311 310 311 311 313 316 318 317 319 318 317 323 341 345 346 347 348 348 348 348 343 337 335 335 340 341 343 342 342 341 337 334 330 330 332 332 333 333 335 331 321 316 314 312
313 314 315 315 314 312 310 310 311 315 317 318 319 319 318 317 329 341 346 346 346 347 348 347 346 340 338 338 340 341 344 343 340 339 339 336 333 334 331 329 329 332 334 327 318 314 312 312 311
315 313 313 312 312 311 311 312 312 312 316 318 319 319 317 316 332 342 345 345 346 346 346 346 344 340 341 341 342 341 341 339 337 331 334 332 328 329 327 328 332 325 317 315 313 312 311 310 309
314 314 311 314 310 310 311 312 314 312 315 318 319 318 318 316 334 343 346 345 344 344 345 345 343 341 342 343 342 341 339 333 334 330 333 332 329 329 330 332 324 316 314 313 312 312 310 308 308
313 311 313 313 313 313 310 311 312 315 314 318 320 319 318 318 331 342 344 342 342 342 342 343 342 342 342 342 342 338 330 331 330 332 333 333 333 333 329 319 316 314 313 312 312 309 308 308 309
315 314 313 312 313 316 313 311 312 319 317 320 321 319 318 324 331 339 340 340 340 342 341 342 343 343 343 342 340 334 331 330 331 332 332 332 331 324 317 315 314 313 313 311 308 308 310 311 311
313 314 313 315 311 315 322 318 317 320 321 321 321 317 323 331 336 336 337 337 337 339 342 342 343 343 341 340 335 331 331 332 332 333 332 329 323 316 315 314 313 313 310 308 309 311 312 312 314

GFSSGP_850_thetae_162.txt.gz
Theta_e
317 316 316 315 321 324 329 332 333 332 332 330 333 336 342 343 349 354 350 353 356 358 349 348 350 347 342 334 334 336 340 341 340 338 333 326 321 321 323 327 327 323 324 328 329 332 331 325 324
323 315 315 317 318 323 328 329 332 333 331 330 331 331 336 339 341 349 351 352 356 358 349 350 348 344 340 334 333 334 339 340 339 337 332 326 321 322 323 327 333 333 329 332 334 333 327 322 323
319 316 317 318 319 320 325 329 329 331 330 329 331 331 334 343 347 348 351 344 354 357 351 350 347 342 337 333 331 335 338 338 337 333 329 326 321 323 324 326 332 337 336 336 328 322 322 322 322
317 317 317 319 320 320 321 325 326 328 330 329 329 330 334 354 353 353 349 353 356 356 354 348 346 340 337 331 328 331 332 332 330 328 327 324 322 324 324 323 324 325 326 325 324 325 323 322 322
316 318 320 320 321 322 321 321 322 325 327 330 329 330 330 346 349 354 354 355 356 355 354 346 344 339 336 331 326 324 324 324 324 325 324 321 322 325 326 327 327 326 325 326 327 328 326 322 322
317 316 320 321 321 322 322 320 319 323 325 326 325 328 329 349 354 356 357 356 355 355 353 345 341 338 336 332 329 326 323 323 323 322 321 320 324 325 325 325 325 324 324 325 324 325 323 322 322
321 320 320 321 322 322 322 320 320 320 323 325 324 325 329 346 355 358 357 356 355 354 350 344 340 336 335 333 332 329 323 321 320 320 320 321 324 325 325 324 325 325 325 323 322 321 322 324 326
318 322 322 322 322 321 322 320 319 319 320 321 322 322 325 330 353 357 357 356 355 354 351 344 342 336 332 332 332 330 324 320 319 320 321 323 324 325 325 325 326 323 323 322 321 321 322 327 328
317 321 321 321 322 321 321 319 318 318 319 320 319 318 322 345 352 356 357 356 355 354 352 348 345 338 335 332 332 330 325 320 320 321 323 323 331 325 326 328 324 324 323 322 322 323 327 329 329
316 318 318 319 321 321 321 320 319 318 318 319 319 319 320 335 346 351 357 356 355 354 353 350 346 344 342 340 333 330 326 321 321 322 323 332 341 339 337 326 325 327 328 328 328 327 325 323 334
314 317 317 318 320 320 320 320 318 319 320 319 319 320 320 329 341 345 350 356 356 354 353 351 349 346 344 343 335 336 331 331 330 329 323 341 343 334 337 334 325 326 324 327 324 326 333 339 338
313 313 314 316 318 318 319 319 321 319 319 319 319 320 321 326 341 343 347 354 356 355 354 353 351 348 346 345 342 343 342 340 340 339 327 341 340 340 339 338 337 337 335 338 334 338 341 340 342
313 313 311 313 314 315 317 318 319 319 319 320 319 319 320 321 332 348 351 352 357 356 355 353 353 351 347 346 345 345 345 344 343 339 330 339 337 339 339 339 336 336 337 338 340 344 345 347 346
312 312 312 312 312 313 316 317 317 318 318 318 319 320 321 321 322 337 351 353 357 356 355 354 352 351 349 348 346 346 345 344 344 342 339 332 336 331 336 335 336 336 340 343 344 345 346 348 347
313 314 313 313 313 314 312 313 316 315 317 318 319 319 320 321 322 326 346 351 356 356 355 354 349 351 351 349 346 347 346 345 344 345 341 336 334 327 333 334 335 336 345 345 346 347 346 348 344
313 313 313 313 314 313 313 313 315 314 315 317 317 319 320 321 321 322 325 349 353 355 354 354 349 352 350 350 347 348 347 346 345 345 345 338 334 327 325 335 333 339 345 345 347 347 347 344 336
314 314 313 313 314 315 314 314 315 314 315 317 317 318 319 319 319 321 327 342 352 355 353 353 352 353 351 350 350 349 349 346 345 346 346 340 337 330 332 336 337 343 346 346 347 345 340 333 329
313 313 313 313 313 313 314 314 314 315 316 317 317 318 319 319 319 320 333 345 352 355 354 351 352 352 352 350 347 347 348 347 346 346 346 342 340 332 325 342 343 342 344 345 345 340 333 331 330
314 314 314 315 314 313 315 316 316 316 315 317 318 319 320 320 320 320 340 349 354 355 354 353 352 351 350 344 343 346 345 346 346 346 345 337 340 338 325 341 342 343 344 343 338 334 331 330 330
316 316 316 315 315 315 315 314 314 315 317 317 318 319 320 321 321 322 345 352 355 355 354 353 351 348 341 344 346 345 345 346 345 344 343 342 340 339 338 338 340 342 342 338 335 332 330 331 330
316 316 316 316 316 316 315 315 315 315 313 314 316 317 320 321 322 328 345 353 356 356 353 350 346 339 338 347 347 346 347 346 344 344 341 340 341 341 334 332 336 340 336 332 331 331 330 331 332
317 316 316 315 314 318 316 318 317 316 315 314 315 316 318 320 321 331 348 355 355 355 353 348 344 340 343 347 346 345 342 343 335 334 336 340 341 342 342 341 337 336 333 333 333 330 330 333 328
316 315 316 316 316 315 316 316 316 316 315 315 315 316 318 320 321 328 350 354 354 354 352 350 346 344 344 339 345 344 340 338 335 337 341 342 341 340 339 334 331 330 331 331 330 329 333 326 318
315 316 317 316 316 321 317 317 317 316 316 315 317 315 318 320 322 326 348 353 354 354 353 351 347 345 343 343 342 333 334 339 340 341 341 339 339 333 331 330 327 328 330 331 332 332 323 316 313
315 319 320 321 321 319 316 316 316 315 315 317 317 317 318 321 322 327 348 352 353 353 353 352 350 348 346 344 335 334 339 341 341 340 339 336 334 333 331 329 328 329 331 332 329 318 315 313 312
317 317 320 322 319 316 315 314 315 316 315 315 316 318 318 321 322 328 346 351 352 352 352 349 351 348 346 337 335 336 339 341 341 339 336 335 332 331 328 329 329 330 332 328 320 315 313 311 310
317 318 316 317 315 316 315 315 315 316 315 315 320 318 319 322 322 335 346 350 350 351 349 349 347 345 340 338 340 342 343 341 339 337 334 333 334 330 327 330 331 331 323 316 314 312 311 309 308
315 315 320 319 317 318 315 314 314 315 315 315 318 322 321 322 325 340 347 349 350 349 350 351 346 344 340 342 343 342 341 341 334 332 331 330 328 328 331 330 325 318 315 313 312 311 308 309 314
316 316 317 316 315 318 316 314 316 314 316 315 318 320 322 322 332 343 348 346 347 347 349 347 347 343 343 346 343 341 339 334 331 333 331 328 333 332 329 321 317 315 313 312 310 308 309 311 315
315 316 316 319 317 316 316 317 320 314 316 317 320 321 322 323 339 344 341 341 345 345 344 343 344 342 343 342 342 338 334 331 333 333 332 332 331 327 320 316 314 313 312 309 308 311 313 317 318

GFSSGP_850_thetae_165.txt.gz
Theta_e
317 319 321 318 322 325 330 333 333 334 334 333 334 335 340 343 348 360 353 355 357 360 348 352 351 347 344 339 339 341 343 339 337 333 326 321 322 323 325 325 323 328 331 334 336 333 330 331 328
325 324 319 319 320 324 329 332 333 334 334 332 332 334 334 341 340 352 352 355 358 360 349 351 350 347 341 336 338 341 342 340 338 335 327 322 322 323 325 324 323 326 331 331 329 332 331 323 323
326 321 320 321 321 322 326 331 333 333 333 332 332 331 333 339 345 349 354 355 359 359 350 348 349 346 339 335 337 339 341 340 338 334 328 322 322 324 328 334 333 325 327 330 332 333 325 322 323
322 319 320 322 323 323 323 326 330 332 332 333 332 333 332 351 352 352 353 355 359 359 355 347 350 344 337 334 335 337 340 340 338 334 328 323 323 324 327 331 338 336 335 336 328 323 322 322 323
320 320 323 323 323 324 326 325 325 327 329 332 332 332 333 347 348 355 354 354 359 359 356 350 348 342 335 334 332 335 339 339 337 331 328 323 324 325 326 325 328 331 331 328 325 326 325 322 322
320 320 323 325 325 325 325 325 324 325 325 328 332 333 333 346 345 351 354 356 358 358 356 350 346 339 334 331 330 332 335 334 331 328 327 323 325 326 326 327 327 327 326 327 328 328 326 324 322
323 322 322 323 325 326 326 325 326 324 324 325 328 331 331 341 348 352 354 357 357 357 357 348 344 337 332 329 327 326 327 327 327 327 326 323 326 327 328 327 326 325 325 325 325 323 323 322 324
318 323 323 323 323 325 326 326 325 323 324 323 326 328 329 341 352 353 356 357 357 357 354 346 341 336 330 328 327 326 325 325 325 324 323 323 327 327 326 326 325 326 325 323 322 321 322 325 327
318 321 322 322 323 324 325 326 324 323 322 323 323 326 327 345 347 349 355 357 357 355 352 348 343 336 338 333 328 325 325 323 321 321 321 324 330 325 326 328 332 324 323 323 322 321 322 326 329
317 320 321 322 322 323 323 325 324 322 322 322 322 322 322 325 345 349 353 356 356 355 352 348 344 338 340 337 329 325 323 321 321 320 322 329 339 336 339 334 327 325 325 324 324 326 328 325 333
315 317 318 319 319 320 321 323 323 323 323 322 322 323 322 322 337 344 353 355 356 355 353 349 346 342 342 342 329 327 330 329 330 336 323 336 342 342 340 341 325 326 327 329 326 324 327 338 340
314 314 315 316 316 317 321 321 323 322 322 322 322 321 322 321 326 339 345 353 357 356 354 350 348 345 344 344 338 339 337 335 337 339 325 342 345 343 339 340 337 339 337 337 339 337 341 343 343
315 315 314 313 314 315 317 321 321 321 322 322 321 321 322 323 323 337 341 344 358 357 355 352 349 347 345 345 342 343 341 339 340 340 325 343 342 343 341 340 338 339 337 338 339 340 345 346 344
315 314 314 314 314 314 315 318 318 319 320 321 322 322 321 322 323 327 343 345 351 357 356 354 352 350 349 347 345 346 345 345 345 344 343 343 339 339 341 341 339 337 337 339 342 342 345 346 346
315 316 316 315 314 315 314 315 316 316 318 320 321 321 322 323 323 324 329 346 352 357 357 355 353 351 351 350 348 348 349 348 346 346 346 343 340 340 339 338 337 337 338 344 344 345 345 345 348
315 316 316 315 315 315 315 315 316 314 315 317 319 320 322 322 321 323 324 338 352 358 357 354 354 352 352 352 350 349 349 348 347 347 348 346 340 343 331 337 337 335 342 343 342 345 346 346 346
317 316 316 315 315 315 316 316 316 315 315 316 317 318 319 322 322 322 324 332 350 353 354 355 353 354 352 353 351 351 350 348 347 346 347 348 347 343 337 336 336 340 341 343 348 345 348 344 341
318 317 316 316 315 315 315 315 316 315 316 317 316 317 319 320 322 322 324 325 340 354 356 355 353 354 351 354 351 351 352 349 346 345 346 347 346 342 328 338 343 343 345 345 344 345 344 340 331
318 318 317 316 316 316 317 315 316 317 316 318 317 318 319 320 321 321 322 323 337 357 353 354 354 353 352 354 353 350 349 347 345 345 349 347 344 341 332 340 344 342 344 342 344 342 340 333 330
317 318 318 318 316 316 317 317 316 316 316 317 318 319 320 321 322 322 322 323 344 356 354 353 352 353 352 352 350 348 346 345 345 347 346 345 343 343 341 342 341 340 340 340 341 339 334 331 331
318 319 318 318 318 317 318 319 318 317 316 315 317 318 319 320 323 323 323 330 352 354 353 354 353 353 352 350 349 347 345 345 345 346 344 344 344 341 337 333 331 338 341 341 340 334 331 332 331
319 317 318 319 320 319 317 320 319 318 318 317 316 317 318 320 322 323 323 334 355 353 354 354 354 353 350 349 348 346 346 345 345 346 346 342 339 339 338 334 334 336 336 336 335 332 333 331 332
319 318 319 319 320 319 320 319 319 319 318 318 317 315 317 319 321 323 324 340 354 351 354 355 354 352 350 348 348 346 346 345 344 341 336 336 340 341 342 341 338 336 336 333 332 330 328 331 326
317 319 319 319 319 324 320 319 319 318 318 318 318 316 316 318 320 323 326 341 354 352 353 352 350 348 347 349 346 347 344 340 332 335 338 341 341 339 337 335 331 330 331 331 330 331 332 327 317
317 320 321 323 326 323 318 319 319 319 319 318 318 317 316 317 320 323 326 350 352 352 352 350 352 350 349 348 347 341 335 333 340 341 341 341 339 336 334 329 329 331 331 332 332 327 320 315 313
319 320 320 321 325 321 318 318 320 320 319 317 317 317 317 316 320 323 325 349 352 352 354 352 351 349 349 348 341 333 337 341 343 340 338 336 335 333 330 329 329 330 329 331 324 317 315 312 312
319 320 318 321 322 322 319 319 320 318 317 318 317 317 318 317 320 323 324 349 350 351 354 352 351 350 350 345 338 337 344 344 339 339 336 336 335 332 331 330 330 330 330 323 317 315 312 310 308
317 317 321 320 322 321 318 317 316 318 317 318 318 317 318 318 321 324 324 335 348 351 353 352 350 350 347 347 341 344 345 340 339 338 336 333 331 328 328 329 330 327 320 316 313 315 311 309 318
319 318 318 319 321 321 317 315 317 319 320 319 318 317 320 320 322 324 331 347 348 351 351 350 349 348 346 345 345 344 341 339 336 334 333 333 331 328 330 327 321 317 315 313 311 309 313 320 320
317 319 318 322 318 318 317 319 317 317 318 319 318 318 321 321 323 329 346 346 350 350 349 348 347 348 348 347 344 342 342 335 332 333 330 328 330 330 327 320 317 315 313 311 313 318 319 320 320

GFSSGP_850_thetae_168.txt.gz
Theta_e
315 317 322 323 321 322 325 330 332 332 333 334 335 336 337 339 351 363 357 356 357 349 348 351 349 346 345 343 342 343 342 337 333 326 320 321 323 326 327 323 323 328 331 336 332 332 335 333 330
314 326 326 321 319 321 324 328 331 333 333 334 333 334 335 338 352 353 355 359 358 345 348 350 348 344 343 341 340 342 342 337 334 327 321 321 322 325 326 323 326 330 333 336 335 332 328 326 325
323 329 323 322 321 321 322 326 330 332 333 334 333 333 333 341 351 354 355 359 358 350 349 350 348 344 342 338 337 341 342 337 335 329 322 322 323 325 324 323 327 331 332 331 330 332 328 323 323
321 324 322 322 322 323 323 324 325 327 328 334 334 333 333 351 352 355 356 360 358 353 350 350 348 343 340 335 336 339 342 338 336 330 324 322 324 328 333 333 327 326 328 331 333 326 322 322 322
323 323 322 323 323 323 325 326 326 326 327 331 334 333 336 348 353 354 355 359 360 356 351 350 348 342 338 334 335 339 341 339 337 331 325 323 325 329 334 336 338 335 336 335 327 324 324 322 322
322 322 324 324 324 325 326 325 325 326 326 327 330 333 338 345 349 353 354 359 360 357 354 349 348 341 338 334 336 339 340 339 337 331 326 323 325 327 329 327 329 330 328 327 326 326 326 324 322
320 323 322 322 322 324 326 326 326 326 326 325 327 329 339 345 349 353 355 358 360 358 356 348 346 340 336 333 335 337 340 338 335 329 327 323 325 327 327 327 328 326 325 325 325 325 325 323 322
317 320 322 323 322 322 324 325 326 327 326 325 324 326 334 349 350 353 354 358 359 358 357 349 344 338 336 334 335 336 337 334 331 328 326 323 325 327 328 327 326 325 325 324 323 322 321 322 325
317 319 321 321 322 323 323 325 325 326 326 325 324 324 339 348 349 352 355 357 359 359 357 350 342 338 334 331 333 333 332 333 330 328 325 322 326 328 328 326 326 326 323 323 322 321 321 324 328
315 318 318 320 321 321 322 323 323 325 325 324 324 324 329 339 343 348 355 357 358 357 353 348 342 336 332 330 328 330 329 327 327 325 322 324 332 328 334 328 327 324 323 322 322 322 326 326 337
314 316 317 318 318 319 320 320 320 322 324 324 323 323 323 327 336 343 350 355 358 356 352 348 342 335 342 334 330 326 325 324 323 321 321 329 340 337 343 339 332 325 327 327 328 325 334 340 342
315 314 314 315 316 317 318 318 318 321 323 324 324 323 322 323 327 341 347 352 357 356 352 348 343 339 342 339 329 328 324 321 320 321 323 339 342 342 340 340 330 328 330 335 338 338 342 344 339
316 316 316 315 315 314 315 316 317 319 322 323 323 323 323 323 323 329 342 348 357 356 353 349 346 339 342 341 331 329 326 324 325 328 325 341 344 343 339 341 339 339 339 337 339 337 343 346 345
316 316 316 315 315 315 315 315 315 317 320 322 321 322 323 323 323 325 338 342 350 356 353 350 348 343 345 343 337 337 335 331 335 328 326 338 341 345 340 341 339 339 337 338 340 341 343 345 345
316 317 317 317 316 316 315 315 315 315 317 320 320 320 322 323 323 324 326 339 343 352 353 350 348 346 346 344 343 343 341 340 342 341 330 342 340 342 339 340 336 338 337 338 344 345 346 345 344
316 316 316 316 316 316 315 314 315 315 315 316 317 318 320 322 323 323 324 325 341 354 348 351 349 346 347 346 348 345 346 346 346 345 345 340 339 342 337 339 338 337 336 340 340 342 344 345 346
317 318 318 317 317 317 315 314 316 315 316 316 316 317 318 320 323 323 323 324 327 357 351 350 351 347 349 349 348 349 349 348 347 347 347 342 343 343 333 337 337 336 337 342 343 344 345 346 345
318 318 318 318 319 317 316 315 316 315 316 316 317 317 316 318 320 322 323 323 326 357 351 350 335 351 348 351 349 350 349 348 347 348 348 345 345 345 336 336 337 336 341 343 347 345 344 341 343
319 320 319 319 318 318 317 317 317 317 316 316 317 317 317 317 318 320 323 323 327 351 355 354 354 352 349 351 350 350 350 350 347 346 348 347 345 344 332 339 340 341 339 344 343 341 342 342 335
319 319 319 318 318 319 318 319 317 317 317 316 317 317 319 318 318 320 323 324 327 344 353 354 353 353 351 351 350 351 348 348 345 346 347 347 345 343 332 341 344 343 338 341 341 343 341 336 331
320 320 320 319 319 319 318 319 320 317 318 317 316 317 318 319 320 321 324 324 324 344 349 355 354 352 351 351 349 351 347 345 346 346 348 345 344 343 339 339 341 341 338 339 342 341 338 332 332
318 318 319 320 319 320 320 322 320 319 319 320 318 316 317 318 320 322 324 325 324 346 350 352 353 354 352 350 352 348 346 346 347 346 345 344 344 343 343 342 334 336 340 341 339 337 335 332 332
319 318 319 321 321 321 322 320 320 319 320 320 320 317 317 317 319 321 324 325 330 348 352 351 353 353 353 351 348 349 347 346 348 346 344 344 344 345 342 339 338 338 337 334 333 332 332 330 328
318 318 319 320 321 325 320 320 321 320 321 319 321 319 317 317 318 320 322 324 343 351 351 351 354 352 352 348 350 346 347 345 346 344 343 343 341 342 341 340 336 329 332 333 331 329 330 330 320
320 321 326 326 326 324 318 319 321 320 320 321 320 318 318 317 317 319 321 325 338 349 348 352 353 350 350 350 347 347 347 345 345 344 339 340 342 340 339 332 328 330 330 331 331 329 323 317 314
321 322 322 323 325 322 318 324 321 321 321 320 319 318 319 318 317 318 321 324 352 352 351 350 351 349 334 349 348 346 347 343 342 337 343 341 340 338 335 329 329 330 329 329 323 319 316 313 310
318 322 319 320 320 324 319 318 321 319 320 320 319 318 319 319 317 318 320 323 348 353 350 350 351 348 348 349 347 348 344 337 340 342 339 337 335 333 330 328 330 329 327 320 317 314 312 310 312
317 317 323 320 321 320 319 320 318 319 320 319 320 320 318 319 318 318 320 323 348 352 350 351 352 346 351 347 345 342 338 341 341 339 337 336 333 331 329 330 329 326 320 316 314 314 309 312 319
318 320 320 319 320 322 320 317 318 319 319 318 319 320 318 318 318 318 320 328 350 346 350 351 350 351 350 346 342 343 343 343 338 337 335 333 331 329 329 328 324 318 316 314 310 314 317 320 319
316 320 319 322 317 319 320 321 318 318 317 317 319 319 319 317 318 319 324 343 347 350 351 349 350 350 346 342 343 344 341 340 337 335 331 330 328 328 325 321 318 316 313 311 316 318 321 321 319

GFSSGP_850_thetae_174.txt.gz
Theta_e
311 315 321 325 317 311 314 316 319 320 322 326 325 326 345 346 346 352 356 354 356 351 348 344 345 346 345 343 342 339 333 324 319 320 323 328 331 331 326 323 330 331 333 331 328 327 325 323 323
310 316 326 326 313 312 312 315 317 318 321 323 322 324 342 348 345 356 357 356 357 352 348 344 343 346 344 343 341 338 334 326 319 320 326 333 331 325 322 325 329 332 332 332 331 331 330 327 324
317 321 329 320 310 312 311 314 316 318 319 320 320 323 342 349 345 356 353 357 356 350 348 345 343 343 344 341 340 337 334 328 320 320 325 331 328 322 322 327 329 332 330 329 327 327 328 326 325
321 322 327 317 314 312 313 314 314 317 319 321 321 321 350 343 343 344 349 353 355 346 347 344 344 344 342 340 338 335 334 331 321 320 322 324 325 322 323 327 329 332 332 327 327 325 323 323 323
321 321 317 315 315 314 316 317 318 316 318 320 321 322 353 349 349 348 349 353 350 343 347 344 343 343 340 339 337 334 335 333 324 320 321 323 323 321 323 326 328 329 327 325 327 323 322 322 322
319 317 317 317 317 317 316 320 319 319 320 320 319 331 353 353 351 352 355 356 352 343 346 344 341 341 339 333 336 336 336 334 328 321 320 322 322 322 323 323 323 324 325 328 325 323 323 323 322
312 310 314 317 317 317 318 319 317 316 316 319 320 319 355 356 353 353 355 356 350 346 347 345 341 340 338 335 334 336 336 335 330 323 321 322 325 326 327 331 329 329 330 327 323 323 324 323 322
316 307 312 312 315 314 317 317 317 318 317 318 319 317 344 356 355 357 356 355 350 348 349 346 341 339 338 337 335 337 337 336 332 326 321 323 325 325 324 327 326 324 324 323 323 323 322 322 330
311 306 307 311 314 313 315 313 316 316 317 317 317 317 339 357 357 358 357 355 351 349 349 347 342 338 336 337 339 339 337 336 333 327 322 323 324 325 323 325 325 323 323 323 322 321 321 327 337
308 303 307 310 311 311 313 313 314 314 315 316 316 319 325 345 356 358 357 357 354 348 350 348 343 338 336 337 340 340 337 336 333 327 324 322 324 324 325 324 323 323 323 322 321 321 321 326 334
310 307 307 310 311 312 311 312 313 313 313 314 315 315 315 319 332 349 356 355 354 353 349 349 346 338 336 336 339 340 336 337 332 327 325 322 325 325 325 323 323 323 322 322 321 322 327 338 340
312 312 311 311 312 311 309 312 312 313 313 313 314 314 315 315 318 322 350 358 358 356 351 348 347 339 336 336 337 339 337 335 328 326 324 322 324 324 324 324 325 323 324 325 326 330 332 338 340
312 311 313 314 314 313 314 312 312 312 314 314 314 314 314 315 315 318 320 349 357 357 356 349 347 342 336 335 335 335 333 330 325 324 323 322 323 325 328 333 328 324 327 328 335 338 339 342 343
313 313 313 314 314 314 313 312 313 314 314 313 313 314 314 314 315 315 317 321 353 355 356 353 347 343 337 334 332 332 330 327 324 322 322 322 328 338 334 338 338 335 336 337 338 338 341 343 344
313 312 312 312 314 312 313 312 313 315 314 314 314 315 314 314 314 315 315 315 337 352 351 354 349 341 338 334 331 330 328 328 323 321 321 328 334 340 341 340 341 339 338 338 340 340 340 343 345
312 311 311 311 313 314 313 313 313 314 314 314 314 314 314 314 314 314 315 315 328 347 350 349 349 342 337 334 331 330 328 326 321 320 324 338 342 343 342 339 342 340 338 337 343 344 345 347 346
311 312 313 314 314 313 312 313 313 314 314 313 314 314 314 314 315 315 315 315 323 344 349 348 345 344 338 337 338 331 329 325 321 321 332 342 345 344 341 340 341 339 337 337 337 338 341 342 342
314 314 314 314 315 315 315 315 314 315 314 313 313 313 314 314 315 315 315 315 323 336 347 347 344 342 339 339 340 333 331 331 328 330 329 339 344 342 342 339 336 336 336 336 339 344 342 342 341
316 316 317 316 316 315 316 316 316 315 314 311 312 313 314 315 315 315 315 316 320 330 341 345 344 342 339 340 340 341 339 341 337 342 339 332 335 339 340 338 337 337 336 336 338 341 343 344 342
316 317 317 317 317 316 316 317 316 314 313 315 315 316 316 315 315 315 315 315 320 325 335 344 344 339 342 341 332 336 343 344 345 345 344 339 338 338 341 338 337 338 338 336 336 341 341 341 338
315 315 315 315 316 316 316 318 317 317 315 317 317 317 317 317 316 315 315 315 317 324 331 340 345 343 343 340 340 342 345 345 346 346 346 346 342 340 342 337 337 339 338 337 338 340 341 338 337
315 315 316 316 316 317 319 320 318 317 317 315 316 316 317 317 317 316 316 315 316 320 328 333 343 342 341 342 340 345 342 337 346 347 348 346 345 344 343 341 337 342 344 343 340 337 336 336 334
320 318 317 317 316 314 317 322 318 317 318 316 316 317 317 318 318 317 316 316 316 320 327 332 339 341 340 335 333 335 340 344 345 347 348 347 347 347 344 341 336 339 338 338 335 336 334 331 330
316 316 317 317 316 320 317 318 317 316 316 316 316 316 317 317 318 318 318 317 317 317 324 336 342 341 341 340 336 343 348 345 347 349 348 347 347 344 343 340 338 335 335 333 332 330 330 330 323
314 315 317 320 319 321 317 318 317 316 316 316 315 316 317 317 317 318 318 317 317 317 323 334 340 340 340 340 338 347 347 347 348 348 347 347 344 343 342 338 339 334 332 329 329 329 328 320 316
312 313 312 319 314 317 318 321 318 315 316 316 317 316 317 317 317 317 317 317 317 317 324 338 340 340 339 337 341 346 346 347 348 347 347 346 344 343 339 338 332 331 330 330 330 324 318 314 312
311 312 314 317 317 318 315 314 314 314 314 315 315 316 317 317 318 319 319 317 317 316 323 334 336 340 339 340 341 341 342 345 345 347 346 345 343 341 340 335 331 330 329 327 320 316 313 311 313
312 313 313 318 321 320 315 314 314 315 316 315 315 315 317 317 317 317 317 317 317 316 320 333 336 336 343 342 336 337 344 336 334 344 343 343 341 339 339 330 329 328 324 317 314 311 311 313 314
311 312 317 317 318 317 318 315 311 314 314 314 314 315 315 316 316 316 317 317 317 316 320 333 337 335 342 340 345 343 337 335 341 343 342 339 338 338 329 329 327 325 317 313 312 313 316 316 316
311 314 315 318 320 319 316 317 314 311 313 313 313 314 314 315 316 316 318 319 316 316 317 331 336 336 337 340 345 341 335 335 342 340 341 337 338 332 329 327 323 316 314 316 316 318 317 317 317